Date,TemperatureHighF,TemperatureAvgF,TemperatureLowF,DewpointHighF,DewpointAvgF,DewpointLowF,HumidityHigh,HumidityAvg,HumidityLow,PressureMaxIn,PressureMinIn,WindSpeedMaxMPH,WindSpeedAvgMPH,GustSpeedMaxMPH,PrecipitationSumIn
2014-1-1,27,26,24,-100,-100,-100,0,0,100,0.00,40.00,29,18,39,0.07
2014-1-2,27,23,20,-100,-100,-100,0,0,100,0.00,40.00,12,6,16,0.01
2014-1-3,26,24,22,-100,-100,-100,0,0,100,0.00,40.00,21,6,24,0.02
2014-1-4,27,26,24,-100,-100,-100,0,0,100,0.00,40.00,62,45,85,0.21
2014-1-5,31,29,26,-100,-100,-100,0,0,100,0.00,40.00,55,27,67,0.10
2014-1-6,31,29,27,-100,-100,-100,0,0,100,0.00,40.00,31,19,39,0.09
2014-1-7,29,28,27,-100,-100,-100,0,0,100,0.00,40.00,29,18,39,0.02
2014-1-8,28,25,21,-100,-100,-100,0,0,100,0.00,40.00,40,18,53,0.03
2014-1-9,23,20,18,-100,-100,-100,0,0,100,0.00,40.00,21,8,29,0.00
2014-1-10,21,19,17,-100,-100,-100,0,0,100,0.00,40.00,18,12,24,0.01
2014-1-11,22,16,11,-100,-100,-100,0,0,100,0.00,40.00,21,8,24,0.03
2014-1-12,20,18,13,-100,-100,-100,0,0,100,0.00,40.00,16,8,20,0.06
2014-1-13,24,21,15,-100,-100,-100,0,0,100,0.00,40.00,47,20,69,0.08
2014-1-14,26,24,22,-100,-100,-100,0,0,100,0.00,40.00,36,18,49,0.20
2014-1-15,30,25,21,-100,-100,-100,0,0,100,0.00,40.00,35,19,45,0.13
2014-1-16,34,30,26,-100,-100,-100,0,0,100,0.00,40.00,56,28,73,0.22
2014-1-17,34,30,28,-100,-100,-100,0,0,100,0.00,40.00,68,43,86,0.18
2014-1-18,28,26,22,-100,-100,-100,0,0,100,0.00,40.00,19,10,26,0.03
2014-1-19,27,25,22,-100,-100,-100,0,0,100,0.00,40.00,51,34,63,0.04
2014-1-20,31,30,25,-100,-100,-100,0,0,100,0.00,40.00,48,38,61,0.12
2014-1-21,32,30,28,-100,-100,-100,0,0,100,0.00,40.00,58,27,76,0.12
2014-1-22,32,31,30,-100,-100,-100,0,0,100,0.00,40.00,52,37,63,0.07
2014-1-23,36,33,31,-100,-100,-100,0,0,100,0.00,40.00,44,27,61,0.55
2014-1-24,35,33,31,-100,-100,-100,0,0,100,0.00,40.00,33,23,41,0.11
2014-1-25,39,36,33,-100,-100,-100,0,0,100,0.00,40.00,45,34,54,0.05
2014-1-26,40,35,33,-100,-100,-100,0,0,100,0.00,40.00,57,43,72,0.06
2014-1-27,45,38,33,-100,-100,-100,0,0,100,0.00,40.00,50,-7,61,0.10
2014-1-28,33,29,27,-100,-100,-100,0,0,100,0.00,40.00,26,14,32,0.01
2014-1-29,29,28,24,-100,-100,-100,0,0,100,0.00,40.00,28,15,32,0.01
2014-1-30,33,29,25,-100,-100,-100,0,0,100,0.00,40.00,22,10,28,0.02
2014-1-31,33,28,24,-100,-100,-100,0,0,100,0.00,40.00,15,12,24,0.01
2014-2-1,33,27,24,-100,-100,-100,0,0,100,0.00,40.00,13,4,21,0.02
2014-2-2,29,27,24,-100,-100,-100,0,0,100,0.00,40.00,22,13,26,0.03
2014-2-3,26,23,19,-100,-100,-100,0,0,100,0.00,40.00,26,17,31,0.02
2014-2-4,28,23,20,-100,-100,-100,0,0,100,0.00,40.00,21,9,24,0.01
2014-2-5,26,21,18,-100,-100,-100,0,0,100,0.00,40.00,19,7,23,0.01
2014-2-6,25,19,14,-100,-100,-100,0,0,100,0.00,40.00,26,10,33,0.01
2014-2-7,23,18,14,-100,-100,-100,0,0,100,0.00,40.00,73,54,88,0.02
2014-2-8,24,21,17,-100,-100,-100,0,0,100,0.00,40.00,23,14,28,0.02
2014-2-9,17,12,9,-100,-100,-100,0,0,100,0.00,40.00,15,4,20,0.03
2014-2-10,23,15,11,-100,-100,-100,0,0,100,0.00,40.00,42,25,51,0.04
2014-2-11,13,10,7,-100,-100,-100,0,0,100,0.00,40.00,19,10,22,0.02
2014-2-12,9,0,-5,-100,-100,-100,0,0,100,0.00,40.00,28,16,36,0.00
2014-2-13,10,3,-7,-100,-100,-100,0,0,100,0.00,40.00,47,16,52,0.04
2014-2-14,16,10,5,-100,-100,-100,0,0,100,0.00,40.00,65,27,75,0.23
2014-2-15,15,10,8,-100,-100,-100,0,0,100,0.00,40.00,27,8,36,0.02
2014-2-16,13,10,8,-100,-100,-100,0,0,100,0.00,40.00,26,10,35,0.05
2014-2-17,21,14,10,-100,-100,-100,0,0,100,0.00,40.00,26,10,29,0.17
2014-2-18,20,16,12,-100,-100,-100,0,0,100,0.00,40.00,49,19,56,0.10
2014-2-19,16,12,9,-100,-100,-100,0,0,100,0.00,40.00,21,9,26,0.01
2014-2-20,14,11,9,-100,-100,-100,0,0,100,0.00,40.00,22,13,26,0.02
2014-2-21,18,14,9,-100,-100,-100,0,0,100,0.00,40.00,12,8,15,0.04
2014-2-22,22,18,15,-100,-100,-100,0,0,100,0.00,40.00,24,13,29,0.09
2014-2-23,21,19,16,-100,-100,-100,0,0,100,0.00,40.00,37,31,49,0.04
2014-2-24,24,21,18,-100,-100,-100,0,0,100,0.00,40.00,28,22,37,0.03
2014-2-25,29,24,19,-100,-100,-100,0,0,100,0.00,40.00,35,21,47,0.06
2014-2-26,38,33,27,-100,-100,-100,0,0,100,0.00,40.00,47,34,58,0.29
2014-2-27,41,37,32,-100,-100,-100,0,0,100,0.00,40.00,19,12,22,0.17
2014-2-28,40,33,29,-100,-100,-100,0,0,100,0.00,40.00,22,10,26,0.03
2014-3-1,35,32,27,-100,-100,-100,0,0,100,0.00,40.00,7,3,9,0.02
2014-3-2,36,28,19,-100,-100,-100,0,0,100,0.00,40.00,11,5,15,0.09
2014-3-3,24,19,14,-100,-100,-100,0,0,100,0.00,40.00,5,3,10,0.01
2014-3-4,24,21,19,-100,-100,-100,0,0,100,0.00,40.00,8,4,10,0.01
2014-3-5,26,21,17,-100,-100,-100,0,0,100,0.00,40.00,9,4,13,0.07
2014-3-6,22,18,15,-100,-100,-100,0,0,100,0.00,40.00,12,6,15,0.01
2014-3-7,25,19,14,-100,-100,-100,0,0,100,0.00,40.00,21,12,31,0.04
2014-3-8,33,18,10,-100,-100,-100,0,0,100,0.00,40.00,21,12,26,0.01
2014-3-9,27,18,10,-100,-100,-100,0,0,100,0.00,40.00,22,12,26,0.02
2014-3-10,25,23,20,-100,-100,-100,0,0,100,0.00,40.00,67,35,86,0.34
2014-3-11,28,27,25,-100,-100,-100,0,0,100,0.00,40.00,26,17,38,0.75
2014-3-12,25,20,16,-100,-100,-100,0,0,100,0.00,40.00,49,20,59,0.27
2014-3-13,27,25,23,-100,-100,-100,0,0,100,0.00,40.00,56,49,70,0.20
2014-3-14,27,24,13,-100,-100,-100,0,0,100,0.00,40.00,54,31,66,0.27
2014-3-15,21,11,5,-100,-100,-100,0,0,100,0.00,40.00,19,5,21,0.07
2014-3-16,17,12,6,-100,-100,-100,0,0,100,0.00,40.00,0,0,0,0.01
2014-3-17,24,20,16,-100,-100,-100,0,0,100,0.00,40.00,0,0,0,0.10
2014-3-18,26,20,15,-100,-100,-100,0,0,100,0.00,40.00,19,2,38,0.09
2014-3-19,25,22,20,-100,-100,-100,0,0,100,0.00,40.00,23,8,50,0.02
2014-3-20,27,21,18,-100,-100,-100,0,0,100,0.00,40.00,21,1,24,0.02
2014-3-21,25,22,19,-100,-100,-100,0,0,100,0.00,40.00,36,22,41,0.06
2014-3-22,33,23,18,-100,-100,-100,0,0,100,0.00,40.00,8,4,11,0.23
2014-3-23,34,26,18,-100,-100,-100,0,0,100,0.00,40.00,8,3,12,0.06
2014-3-24,32,28,21,-100,-100,-100,0,0,100,0.00,40.00,17,8,20,0.03
2014-3-25,37,29,24,-100,-100,-100,0,0,100,0.00,40.00,13,5,18,0.10
2014-3-26,36,27,21,-100,-100,-100,0,0,100,0.00,40.00,5,2,6,0.01
2014-3-27,33,24,18,-100,-100,-100,0,0,100,0.00,40.00,5,2,6,0.09
2014-3-28,31,23,16,-100,-100,-100,0,0,100,0.00,40.00,15,3,21,0.11
2014-3-29,33,23,15,-100,-100,-100,0,0,100,0.00,40.00,17,5,22,0.02
2014-3-30,30,24,18,-100,-100,-100,0,0,100,0.00,40.00,24,13,32,0.01
2014-3-31,33,24,18,-100,-100,-100,0,0,100,0.00,40.00,8,3,11,0.05
2014-4-1,30,23,19,-100,-100,-100,0,0,100,0.00,40.00,9,4,11,0.12
2014-4-2,31,24,19,-100,-100,-100,0,0,100,0.00,40.00,9,5,10,0.03
2014-4-3,28,23,17,-100,-100,-100,0,0,100,0.00,40.00,14,5,17,0.06
2014-4-4,26,24,21,-100,-100,-100,0,0,100,0.00,40.00,34,25,40,0.01
2014-4-5,30,26,24,-100,-100,-100,0,0,100,0.00,40.00,30,14,36,0.06
2014-4-6,32,27,25,-100,-100,-100,0,0,100,0.00,40.00,8,5,10,0.08
2014-4-7,29,27,23,-100,-100,-100,0,0,100,0.00,40.00,30,20,44,0.04
2014-4-8,23,19,13,-100,-100,-100,0,0,100,0.00,40.00,18,12,25,0.04
2014-4-9,20,14,10,-100,-100,-100,0,0,100,0.00,40.00,23,14,28,0.02
2014-4-10,33,21,9,-100,-100,-100,0,0,100,0.00,40.00,24,6,29,0.07
2014-4-11,33,24,19,-100,-100,-100,0,0,100,0.00,40.00,10,6,14,0.02
2014-4-12,28,24,20,-100,-100,-100,0,0,100,0.00,40.00,34,19,44,0.04
2014-4-13,28,25,22,-100,-100,-100,0,0,100,0.00,40.00,48,32,57,0.07
2014-4-14,35,29,24,-100,-100,-100,0,0,100,0.00,40.00,19,6,21,0.08
2014-4-15,33,30,27,-100,-100,-100,0,0,100,0.00,40.00,17,8,21,0.06
2014-4-16,33,30,28,-100,-100,-100,0,0,100,0.00,40.00,25,17,30,0.03
2014-4-17,42,33,29,-100,-100,-100,0,0,100,0.00,40.00,22,8,27,0.05
2014-4-18,31,29,26,-100,-100,-100,0,0,100,0.00,40.00,29,15,35,0.03
2014-4-19,35,30,26,-100,-100,-100,0,0,100,0.00,40.00,31,19,41,0.05
2014-4-20,38,33,30,-100,-100,-100,0,0,100,0.00,40.00,42,24,55,0.02
2014-4-21,42,36,31,-100,-100,-100,0,0,100,0.00,40.00,11,6,15,0.05
2014-4-22,41,35,31,-100,-100,-100,0,0,100,0.00,40.00,13,5,17,0.02
2014-4-23,33,30,26,-100,-100,-100,0,0,100,0.00,40.00,10,5,13,0.06
2014-4-24,36,28,24,-100,-100,-100,0,0,100,0.00,40.00,22,7,24,0.12
2014-4-25,28,27,26,-100,-100,-100,0,0,100,0.00,40.00,32,23,36,0.02
2014-4-27,34,32,32,-100,-100,-100,0,0,100,0.00,40.00,30,26,37,0.00
2014-4-28,36,32,29,-100,-100,-100,0,0,100,0.00,40.00,36,18,45,0.02
2014-4-29,44,35,28,-100,-100,-100,0,0,100,0.00,40.00,22,9,27,0.05
2014-4-30,47,38,31,-100,-100,-100,0,0,100,0.00,40.00,11,5,17,0.05
2014-5-1,51,45,35,-100,-100,-100,0,0,100,0.00,40.00,20,6,23,0.09
2014-5-2,58,50,41,-100,-100,-100,0,0,100,0.00,40.00,12,6,14,0.09
2014-5-3,56,49,45,-100,-100,-100,0,0,100,0.00,40.00,15,6,19,0.04
2014-5-4,52,46,40,-100,-100,-100,0,0,100,0.00,40.00,7,4,11,0.01
2014-5-5,42,37,32,-100,-100,-100,0,0,100,0.00,40.00,15,6,19,0.03
2014-5-6,35,33,31,-100,-100,-100,0,0,100,0.00,40.00,29,23,36,0.01
2014-5-13,58,52,48,-100,-100,-100,0,0,100,0.00,40.00,7,5,15,0.03
2014-5-14,54,49,42,-100,-100,-100,0,0,100,0.00,40.00,24,8,35,0.01
2014-5-15,55,49,42,-100,-100,-100,0,0,100,0.00,40.00,13,5,24,0.04
2014-5-16,60,55,46,-100,-100,-100,0,0,100,0.00,40.00,21,-46,27,0.04
2014-5-17,61,54,49,-100,-100,-100,0,0,100,0.00,40.00,20,9,27,0.03
2014-5-18,52,48,41,-100,-100,-100,0,0,100,0.00,40.00,23,13,35,0.05
2014-5-19,44,37,33,-100,-100,-100,0,0,100,0.00,40.00,30,17,36,0.10
2014-5-20,49,40,34,-100,-100,-100,0,0,100,0.00,40.00,21,10,27,0.04
2014-5-21,48,43,38,-100,-100,-100,0,0,100,0.00,40.00,15,8,17,0.01
2014-5-22,48,41,37,-100,-100,-100,0,0,100,0.00,40.00,22,10,37,0.01
2014-5-23,52,45,38,-100,-100,-100,0,0,100,0.00,40.00,11,6,15,0.07
2014-5-24,45,39,35,-100,-100,-100,0,0,100,0.00,40.00,8,5,11,0.01
2014-5-25,46,38,33,-100,-100,-100,0,0,100,0.00,40.00,8,5,12,0.02
2014-5-26,46,39,34,-100,-100,-100,0,0,100,0.00,40.00,18,8,21,0.01
2014-5-27,38,36,33,-100,-100,-100,0,0,100,0.00,40.00,18,13,22,0.03
2014-5-28,41,38,35,-100,-100,-100,0,0,100,0.00,40.00,15,10,19,0.04
2014-5-29,38,37,36,-100,-100,-100,0,0,100,0.00,40.00,27,15,35,0.01
2014-5-30,39,38,37,-100,-100,-100,0,0,100,0.00,40.00,37,34,51,0.29
2014-5-31,38,33,30,-100,-100,-100,0,0,100,0.00,40.00,41,16,56,0.21
2014-6-1,38,33,30,-100,-100,-100,0,0,100,0.00,40.00,19,10,24,0.04
2014-6-2,46,38,31,-100,-100,-100,0,0,100,0.00,40.00,24,12,34,0.14
2014-6-3,51,45,38,-100,-100,-100,0,0,100,0.00,40.00,29,12,40,0.11
2014-6-4,56,49,42,-100,-100,-100,0,0,100,0.00,40.00,9,4,11,0.07
2014-6-5,45,42,38,-100,-100,-100,0,0,100,0.00,40.00,20,14,24,0.01
2014-6-6,40,38,36,-100,-100,-100,0,0,100,0.00,40.00,39,26,50,0.05
2014-6-7,41,38,37,-100,-100,-100,0,0,100,0.00,40.00,43,35,57,0.09
2014-6-8,46,40,36,-100,-100,-100,0,0,100,0.00,40.00,18,7,24,0.08
2014-6-9,46,41,38,-100,-100,-100,0,0,100,0.00,40.00,12,5,16,0.03
2014-6-10,41,37,34,-100,-100,-100,0,0,100,0.00,40.00,12,7,17,0.07
2014-6-11,42,37,31,-100,-100,-100,0,0,100,0.00,40.00,6,4,9,0.04
2014-6-12,43,39,34,-100,-100,-100,0,0,100,0.00,40.00,24,8,28,0.01
2014-6-13,37,36,35,-100,-100,-100,0,0,100,0.00,40.00,36,26,43,0.05
2014-6-14,42,39,35,-100,-100,-100,0,0,100,0.00,40.00,24,12,33,0.13
2014-6-15,46,42,39,-100,-100,-100,0,0,100,0.00,40.00,11,6,15,0.07
2014-6-16,40,38,35,-100,-100,-100,0,0,100,0.00,40.00,53,30,70,0.12
2014-6-17,41,38,35,-100,-100,-100,0,0,100,0.00,40.00,47,23,66,0.39
2014-6-18,42,38,35,-100,-100,-100,0,0,100,0.00,40.00,20,13,23,0.05
2014-6-19,45,39,36,-100,-100,-100,0,0,100,0.00,40.00,23,13,27,0.01
2014-6-20,55,47,41,-100,-100,-100,0,0,100,0.00,40.00,22,12,26,0.18
2014-6-21,43,38,33,-100,-100,-100,0,0,100,0.00,40.00,18,9,24,0.04
2014-6-22,51,43,38,-100,-100,-100,0,0,100,0.00,40.00,34,14,40,0.11
2014-6-23,45,40,38,-100,-100,-100,0,0,100,0.00,40.00,29,25,40,0.02
2014-6-24,53,44,39,-100,-100,-100,0,0,100,0.00,40.00,16,6,20,0.15
2014-6-25,41,39,37,-100,-100,-100,0,0,100,0.00,40.00,10,5,12,0.02
2014-6-26,43,39,36,-100,-100,-100,0,0,100,0.00,40.00,11,7,14,0.04
2014-6-27,50,43,37,-100,-100,-100,0,0,100,0.00,40.00,15,6,21,0.09
2014-6-28,55,44,40,-100,-100,-100,0,0,100,0.00,40.00,21,13,26,0.13
2014-6-29,55,52,49,-100,-100,-100,0,0,100,0.00,40.00,6,6,8,0.12
2014-6-30,47,45,42,43,40,37,94,84,74,0.00,40.00,13,7,17,0.06
2014-7-1,55,47,40,45,42,36,97,82,65,0.00,40.00,10,4,13,0.09
2014-7-2,61,54,46,43,40,37,84,61,48,0.00,40.00,19,10,28,0.10
2014-7-3,62,56,50,47,43,39,70,61,52,0.00,40.00,11,4,13,0.07
2014-7-4,66,59,52,46,43,40,65,55,43,0.00,40.00,11,5,15,0.04
2014-7-5,53,48,46,49,41,-100,97,83,61,0.00,40.00,14,6,21,0.01
2014-7-6,51,46,44,48,43,40,98,91,69,0.00,40.00,32,12,42,0.04
2014-7-7,46,44,43,43,41,39,95,89,79,0.00,40.00,36,17,45,0.03
2014-7-8,54,48,43,45,42,39,91,81,70,0.00,40.00,11,6,15,0.09
2014-7-9,48,44,42,45,41,38,96,87,80,0.00,40.00,24,10,31,0.01
2014-7-10,45,43,42,41,40,38,91,88,84,0.00,40.00,49,41,61,0.38
2014-7-11,48,45,43,43,41,40,89,86,80,0.00,40.00,48,33,61,0.37
2014-7-12,51,43,40,44,39,34,98,84,52,0.00,40.00,12,5,16,0.05
2014-7-13,48,44,41,43,40,36,96,89,76,0.00,40.00,11,6,14,0.06
2014-7-14,53,46,39,43,38,37,96,76,57,0.00,40.00,12,6,17,0.08
2014-7-15,57,50,42,46,41,31,90,73,52,0.00,40.00,15,7,18,0.06
2014-7-16,53,48,44,48,44,41,96,85,73,0.00,40.00,8,4,10,0.01
2014-7-17,47,45,43,45,43,41,97,93,88,0.00,40.00,7,4,10,0.01
2014-7-18,58,49,42,44,42,40,96,79,55,0.00,40.00,16,8,21,0.14
2014-7-19,53,48,45,48,43,39,96,82,70,0.00,40.00,15,5,16,0.01
2014-7-20,51,45,40,43,37,34,92,75,62,0.00,40.00,18,10,27,0.06
2014-7-21,61,54,48,42,38,34,69,55,48,0.00,40.00,20,10,28,0.19
2014-7-22,56,52,46,46,40,36,82,66,52,0.00,40.00,21,10,26,0.01
2014-7-23,46,44,42,44,42,39,96,91,84,0.00,40.00,26,14,30,0.02
2014-7-24,53,46,41,43,41,38,95,82,66,0.00,40.00,14,8,17,0.08